User: anonymous   Login
Location: Black Swamp Observatory
(41.3920°N, 84.1250°W)
Time: 04:00:13
(UTC-05:00)
Language:

NOAA 15 - Orbit

View from above orbital plane
View from above orbital plane
View from above satellite
View from above satellite

Ground track
Ground track

The orbit data is extracted from the following two-line orbital elements,

1 25338U 98030A   24063.81764836  .00000220  00000-0  10909-3 0  9995
2 25338  98.5814  93.0905 0009218 272.4774  87.5351 14.26505014342160
Epoch (UTC): 03 March 2024 19:37:24
Eccentricity: 0.0009218
inclination: 98.5814°
perigee height: 797 km
apogee height: 810 km
right ascension of ascending node: 93.0905°
argument of perigee: 272.4774°
revolutions per day: 14.26505014
mean anomaly at epoch: 87.5351°
orbit number at epoch: 34216

The dashed part of the orbit path shows where the satellite is in the earth's shadow,  

DLR